| time (UTC) | temp C | wind direction | speed KPH | gust KPH | rain 1hr cm | rain 24hr cm | rain mn cm | humidity % | barometer mb |
| 20260831062905 | 21 | 235 | 0.0 | 0.0 | 0.00 | 0.00 | 0.00 | 81 | 1016.8 |
| 20260831062405 | 21 | 235 | 0.0 | 0.0 | 0.00 | 0.00 | 0.00 | 81 | 1016.9 |
| 20260831061405 | 21 | 235 | 0.0 | 0.0 | 0.00 | 0.00 | 0.00 | 80 | 1016.9 |
| 20260831060905 | 21 | 235 | 0.0 | 0.0 | 0.00 | 0.00 | 0.00 | 80 | 1016.9 |
| 20260831055905 | 21 | 235 | 0.0 | 0.0 | 0.00 | 0.00 | 0.00 | 80 | 1017.0 |
| 20260831054905 | 22 | 235 | 0.0 | 0.0 | 0.00 | 0.00 | 0.00 | 80 | 1016.9 |
| 20260831054405 | 22 | 234 | 0.0 | 0.0 | 0.00 | 0.00 | 0.00 | 80 | 1016.8 |
| 20260831052405 | 22 | 235 | 0.0 | 0.0 | 0.00 | 0.00 | 0.00 | 79 | 1016.8 |
| 20260831051905 | 22 | 235 | 0.0 | 0.0 | 0.00 | 0.00 | 0.00 | 79 | 1016.9 |
| 20260831051405 | 22 | 235 | 0.0 | 0.0 | 0.00 | 0.00 | 0.00 | 79 | 1017.0 |
| 20260831050404 | 22 | 234 | 0.0 | 0.0 | 0.00 | 0.00 | 0.00 | 79 | 1017.0 |
| 20260831045905 | 22 | 235 | 0.0 | 0.0 | 0.00 | 0.00 | 0.00 | 79 | 1017.0 |
| 20260831045405 | 22 | 235 | 0.0 | 0.0 | 0.00 | 0.00 | 0.00 | 79 | 1017.0 |
| 20260831044905 | 22 | 235 | 0.0 | 0.0 | 0.00 | 0.00 | 0.00 | 79 | 1016.9 |
| 20260831044405 | 22 | 235 | 0.0 | 0.0 | 0.00 | 0.00 | 0.00 | 79 | 1016.9 |
| 20260831043904 | 22 | 235 | 0.0 | 0.0 | 0.00 | 0.00 | 0.00 | 79 | 1016.9 |
| 20260831043405 | 22 | 235 | 0.0 | 0.0 | 0.00 | 0.00 | 0.00 | 78 | 1016.9 |
| 20260831042905 | 22 | 235 | 0.0 | 0.0 | 0.00 | 0.00 | 0.00 | 78 | 1016.9 |
| 20260831042405 | 22 | 234 | 0.0 | 0.0 | 0.00 | 0.00 | 0.00 | 78 | 1016.9 |
| 20260831041405 | 22 | 235 | 0.0 | 0.0 | 0.00 | 0.00 | 0.00 | 78 | 1016.9 |
| 20260831040905 | 22 | 235 | 0.0 | 0.0 | 0.00 | 0.00 | 0.00 | 78 | 1016.9 |
| 20260831040405 | 22 | 235 | 0.0 | 0.0 | 0.00 | 0.00 | 0.00 | 77 | 1017.0 |
| 20260831035905 | 22 | 235 | 0.0 | 0.0 | 0.00 | 0.00 | 0.00 | 77 | 1016.9 |
| 20260831035405 | 22 | 235 | 0.0 | 0.0 | 0.00 | 0.00 | 0.00 | 77 | 1016.9 |
| 20260831034405 | 23 | 235 | 0.0 | 0.0 | 0.00 | 0.00 | 0.00 | 76 | 1016.9 |
| 20260831033405 | 23 | 235 | 0.0 | 0.0 | 0.00 | 0.00 | 0.00 | 76 | 1016.8 |
| 20260831032905 | 23 | 235 | 0.0 | 0.0 | 0.00 | 0.00 | 0.00 | 76 | 1016.7 |
| 20260831032405 | 23 | 234 | 0.0 | 0.0 | 0.00 | 0.00 | 0.00 | 75 | 1016.8 |
| 20260831031905 | 23 | 235 | 0.0 | 0.0 | 0.00 | 0.00 | 0.00 | 75 | 1016.8 |
| 20260831031404 | 23 | 235 | 0.0 | 0.0 | 0.00 | 0.00 | 0.00 | 75 | 1016.8 |
| 20260831030905 | 23 | 235 | 0.0 | 0.0 | 0.00 | 0.00 | 0.00 | 74 | 1016.8 |
| 20260831030405 | 23 | 235 | 0.0 | 0.0 | 0.00 | 0.00 | 0.00 | 74 | 1016.8 |
| 20260831025904 | 23 | 235 | 0.0 | 0.0 | 0.00 | 0.00 | 0.00 | 74 | 1016.9 |
| 20260831025405 | 23 | 235 | 0.0 | 0.0 | 0.00 | 0.00 | 0.00 | 74 | 1017.0 |
| 20260831024405 | 24 | 235 | 0.0 | 0.0 | 0.00 | 0.00 | 0.00 | 73 | 1016.9 |
| 20260831023905 | 24 | 235 | 0.0 | 0.0 | 0.00 | 0.00 | 0.00 | 73 | 1016.8 |
| 20260831023405 | 25 | 235 | 0.0 | 0.0 | 0.00 | 0.00 | 0.00 | 72 | 1016.6 |
| 20260831022904 | 25 | 235 | 0.0 | 0.0 | 0.00 | 0.00 | 0.00 | 72 | 1016.6 |
| 20260831022405 | 25 | 235 | 0.0 | 0.0 | 0.00 | 0.00 | 0.00 | 71 | 1016.6 |
| 20260831021905 | 25 | 235 | 0.0 | 0.0 | 0.00 | 0.00 | 0.00 | 70 | 1016.5 |
| 20260831021405 | 25 | 234 | 0.0 | 0.0 | 0.00 | 0.00 | 0.00 | 69 | 1016.5 |
| 20260831020905 | 25 | 235 | 0.0 | 0.0 | 0.00 | 0.00 | 0.00 | 69 | 1016.5 |
| 20260831020404 | 26 | 235 | 0.0 | 0.0 | 0.00 | 0.00 | 0.00 | 67 | 1016.5 |
| 20260831015405 | 26 | 235 | 0.0 | 0.0 | 0.00 | 0.00 | 0.00 | 65 | 1016.3 |
| 20260831014405 | 26 | 235 | 0.0 | 0.0 | 0.00 | 0.00 | 0.00 | 64 | 1016.3 |
| 20260831013905 | 26 | 235 | 0.0 | 0.0 | 0.00 | 0.00 | 0.00 | 64 | 1016.2 |
| 20260831013405 | 26 | 235 | 0.0 | 0.0 | 0.00 | 0.00 | 0.00 | 63 | 1016.1 |
| 20260831012905 | 27 | 235 | 0.0 | 0.0 | 0.00 | 0.00 | 0.00 | 63 | 1016.1 |
| 20260831012405 | 27 | 235 | 0.0 | 0.0 | 0.00 | 0.00 | 0.00 | 62 | 1016.0 |
| 20260831011904 | 27 | 235 | 0.0 | 0.0 | 0.00 | 0.00 | 0.00 | 61 | 1016.0 |
| 20260831011405 | 27 | 235 | 0.0 | 0.0 | 0.00 | 0.00 | 0.00 | 60 | 1016.0 |
| 20260831010905 | 27 | 235 | 0.0 | 0.0 | 0.00 | 0.00 | 0.00 | 60 | 1016.1 |
| 20260831010405 | 28 | 235 | 0.0 | 0.0 | 0.00 | 0.00 | 0.00 | 59 | 1016.1 |
| 20260831005905 | 28 | 235 | 0.0 | 0.0 | 0.00 | 0.00 | 0.00 | 58 | 1016.0 |
| 20260831005405 | 28 | 235 | 0.0 | 0.0 | 0.00 | 0.00 | 0.00 | 57 | 1016.0 |
| 20260831004905 | 28 | 234 | 0.0 | 0.0 | 0.00 | 0.00 | 0.00 | 57 | 1016.0 |
| 20260831004404 | 29 | 235 | 0.0 | 0.0 | 0.00 | 0.00 | 0.00 | 56 | 1015.9 |
| 20260831003905 | 29 | 235 | 0.0 | 0.0 | 0.00 | 0.00 | 0.00 | 55 | 1015.9 |
| 20260831003405 | 30 | 235 | 0.0 | 0.0 | 0.00 | 0.00 | 0.00 | 54 | 1015.8 |
| 20260831002904 | 30 | 235 | 0.0 | 0.0 | 0.00 | 0.00 | 0.00 | 53 | 1015.8 |
| 20260831002405 | 30 | 236 | 0.0 | 0.0 | 0.00 | 0.00 | 0.00 | 52 | 1015.8 |
| 20260831001404 | 31 | 237 | 0.0 | 0.0 | 0.00 | 0.00 | 0.00 | 50 | 1015.8 |
| 20260831000404 | 31 | 237 | 0.0 | 0.0 | 0.00 | 0.00 | 0.00 | 49 | 1015.9 |
| 20260830235905 | 31 | 237 | 0.0 | 0.0 | 0.00 | 0.00 | 0.00 | 49 | 1015.9 |
| 20260830235405 | 32 | 239 | 0.0 | 0.0 | 0.00 | 0.00 | 0.00 | 48 | 1016.0 |
| 20260830234404 | 32 | 239 | 0.0 | 0.0 | 0.00 | 0.00 | 0.00 | 46 | 1016.2 |
| 20260830233405 | 32 | 200 | 1.6 | 4.8 | 0.00 | 0.00 | 0.00 | 45 | 1016.1 |
| 20260830232904 | 32 | 209 | 1.6 | 9.7 | 0.00 | 0.00 | 0.00 | 45 | 1016.1 |
| 20260830232404 | 32 | 223 | 0.0 | 3.2 | 0.00 | 0.00 | 0.00 | 45 | 1016.0 |
| 20260830231905 | 32 | 205 | 0.0 | 9.7 | 0.00 | 0.00 | 0.00 | 45 | 1016.0 |
| 20260830231405 | 32 | 217 | 1.6 | 4.8 | 0.00 | 0.00 | 0.00 | 45 | 1016.0 |
| 20260830230904 | 32 | 192 | 1.6 | 9.7 | 0.00 | 0.00 | 0.00 | 46 | 1016.1 |
| 20260830230404 | 32 | 169 | 1.6 | 11.3 | 0.00 | 0.00 | 0.00 | 45 | 1016.1 |
| 20260830225904 | 32 | 216 | 1.6 | 16.1 | 0.00 | 0.00 | 0.00 | 45 | 1016.1 |
| 20260830225405 | 32 | 200 | 0.0 | 9.7 | 0.00 | 0.00 | 0.00 | 44 | 1016.0 |
| 20260830224904 | 32 | 212 | 0.0 | 8.0 | 0.00 | 0.00 | 0.00 | 43 | 1016.0 |
| 20260830224405 | 33 | 127 | 0.0 | 9.7 | 0.00 | 0.00 | 0.00 | 43 | 1015.9 |
| 20260830223905 | 33 | 180 | 3.2 | 11.3 | 0.00 | 0.00 | 0.00 | 42 | 1016.0 |
| 20260830223404 | 33 | 197 | 3.2 | 12.9 | 0.00 | 0.00 | 0.00 | 40 | 1016.0 |
| 20260830222904 | 34 | 250 | 1.6 | 8.0 | 0.00 | 0.00 | 0.00 | 39 | 1016.0 |
| 20260830222404 | 35 | 204 | 0.0 | 3.2 | 0.00 | 0.00 | 0.00 | 39 | 1016.1 |
| 20260830221905 | 35 | 182 | 1.6 | 8.0 | 0.00 | 0.00 | 0.00 | 38 | 1016.1 |
| 20260830221405 | 35 | 190 | 1.6 | 8.0 | 0.00 | 0.00 | 0.00 | 40 | 1016.1 |
| 20260830220905 | 35 | 190 | 0.0 | 3.2 | 0.00 | 0.00 | 0.00 | 39 | 1016.1 |
| 20260830215904 | 35 | 184 | 1.6 | 16.1 | 0.00 | 0.00 | 0.00 | 38 | 1016.1 |
| 20260830215404 | 35 | 190 | 1.6 | 9.7 | 0.00 | 0.00 | 0.00 | 39 | 1016.1 |
| 20260830214904 | 35 | 162 | 1.6 | 9.7 | 0.00 | 0.00 | 0.00 | 39 | 1016.1 |
| 20260830214405 | 35 | 212 | 3.2 | 9.7 | 0.00 | 0.00 | 0.00 | 37 | 1016.2 |
| 20260830213904 | 35 | 209 | 1.6 | 9.7 | 0.00 | 0.00 | 0.00 | 38 | 1016.2 |
| 20260830213404 | 35 | 225 | 1.6 | 11.3 | 0.00 | 0.00 | 0.00 | 38 | 1016.2 |
| 20260830212904 | 35 | 188 | 3.2 | 12.9 | 0.00 | 0.00 | 0.00 | 38 | 1016.3 |
| 20260830211905 | 35 | 225 | 1.6 | 11.3 | 0.00 | 0.00 | 0.00 | 38 | 1016.3 |
| 20260830211404 | 35 | 203 | 0.0 | 8.0 | 0.00 | 0.00 | 0.00 | 40 | 1016.3 |
| 20260830210904 | 35 | 219 | 1.6 | 4.8 | 0.00 | 0.00 | 0.00 | 39 | 1016.4 |
| 20260830210404 | 35 | 168 | 1.6 | 11.3 | 0.00 | 0.00 | 0.00 | 40 | 1016.5 |
| 20260830205905 | 35 | 182 | 1.6 | 8.0 | 0.00 | 0.00 | 0.00 | 39 | 1016.5 |
| 20260830205405 | 35 | 211 | 0.0 | 12.9 | 0.00 | 0.00 | 0.00 | 40 | 1016.4 |
| 20260830204905 | 35 | 190 | 1.6 | 12.9 | 0.00 | 0.00 | 0.00 | 40 | 1016.5 |
| 20260830203904 | 35 | 167 | 1.6 | 8.0 | 0.00 | 0.00 | 0.00 | 40 | 1016.5 |
| 20260830203404 | 35 | 171 | 3.2 | 19.3 | 0.00 | 0.00 | 0.00 | 40 | 1016.5 |
| 20260830202905 | 35 | 239 | 1.6 | 9.7 | 0.00 | 0.00 | 0.00 | 40 | 1016.7 |
| 20260830201905 | 35 | 220 | 4.8 | 12.9 | 0.00 | 0.00 | 0.00 | 41 | 1016.8 |
| 20260830201405 | 35 | 200 | 1.6 | 8.0 | 0.00 | 0.00 | 0.00 | 42 | 1016.8 |
| 20260830200404 | 35 | 180 | 0.0 | 4.8 | 0.00 | 0.00 | 0.00 | 43 | 1017.0 |
| 20260830195904 | 35 | 156 | 1.6 | 11.3 | 0.00 | 0.00 | 0.00 | 42 | 1017.0 |
| 20260830195404 | 34 | 172 | 1.6 | 9.7 | 0.00 | 0.00 | 0.00 | 42 | 1017.0 |
| 20260830194905 | 34 | 173 | 3.2 | 14.5 | 0.00 | 0.00 | 0.00 | 43 | 1017.1 |
| 20260830194405 | 34 | 154 | 6.4 | 12.9 | 0.00 | 0.00 | 0.00 | 42 | 1017.2 |
| 20260830193904 | 34 | 217 | 0.0 | 0.0 | 0.00 | 0.00 | 0.00 | 41 | 1017.2 |
| 20260830193404 | 34 | 227 | 1.6 | 11.3 | 0.00 | 0.00 | 0.00 | 39 | 1017.2 |
| 20260830192904 | 34 | 295 | 3.2 | 12.9 | 0.00 | 0.00 | 0.00 | 40 | 1017.2 |
| 20260830192405 | 34 | 212 | 4.8 | 12.9 | 0.00 | 0.00 | 0.00 | 41 | 1017.4 |
| 20260830191904 | 34 | 229 | 1.6 | 9.7 | 0.00 | 0.00 | 0.00 | 41 | 1017.4 |
| 20260830191404 | 34 | 197 | 1.6 | 16.1 | 0.00 | 0.00 | 0.00 | 42 | 1017.5 |
| 20260830190904 | 34 | 237 | 3.2 | 16.1 | 0.00 | 0.00 | 0.00 | 42 | 1017.5 |
| 20260830190404 | 34 | 219 | 4.8 | 11.3 | 0.00 | 0.00 | 0.00 | 42 | 1017.5 |
| 20260830185904 | 34 | 198 | 3.2 | 14.5 | 0.00 | 0.00 | 0.00 | 41 | 1017.5 |
| 20260830184905 | 34 | 203 | 4.8 | 11.3 | 0.00 | 0.00 | 0.00 | 42 | 1017.6 |
| 20260830184404 | 34 | 192 | 4.8 | 20.9 | 0.00 | 0.00 | 0.00 | 42 | 1017.6 |
| 20260830183904 | 33 | 211 | 3.2 | 16.1 | 0.00 | 0.00 | 0.00 | 43 | 1017.6 |
| 20260830182904 | 33 | 180 | 6.4 | 12.9 | 0.00 | 0.00 | 0.00 | 41 | 1017.6 |
| 20260830181904 | 33 | 202 | 1.6 | 11.3 | 0.00 | 0.00 | 0.00 | 41 | 1017.8 |
| 20260830180904 | 33 | 253 | 0.0 | 12.9 | 0.00 | 0.00 | 0.00 | 43 | 1018.0 |
| 20260830180405 | 33 | 206 | 3.2 | 11.3 | 0.00 | 0.00 | 0.00 | 43 | 1018.0 |
| 20260830175904 | 33 | 211 | 3.2 | 14.5 | 0.00 | 0.00 | 0.00 | 44 | 1018.0 |
| 20260830174404 | 32 | 216 | 0.0 | 8.0 | 0.00 | 0.00 | 0.00 | 44 | 1018.2 |
| 20260830173404 | 32 | 176 | 3.2 | 9.7 | 0.00 | 0.00 | 0.00 | 43 | 1018.4 |
| 20260830172904 | 32 | 153 | 1.6 | 11.3 | 0.00 | 0.00 | 0.00 | 42 | 1018.5 |
| 20260830172404 | 32 | 214 | 3.2 | 11.3 | 0.00 | 0.00 | 0.00 | 41 | 1018.5 |
| 20260830171904 | 32 | 179 | 0.0 | 12.9 | 0.00 | 0.00 | 0.00 | 43 | 1018.4 |
| 20260830171404 | 32 | 157 | 1.6 | 11.3 | 0.00 | 0.00 | 0.00 | 43 | 1018.5 |
| 20260830170904 | 32 | 135 | 1.6 | 14.5 | 0.00 | 0.00 | 0.00 | 45 | 1018.5 |
| 20260830170404 | 32 | 232 | 3.2 | 12.9 | 0.00 | 0.00 | 0.00 | 43 | 1018.5 |
| 20260830165904 | 32 | 188 | 1.6 | 8.0 | 0.00 | 0.00 | 0.00 | 43 | 1018.6 |
| 20260830165404 | 32 | 167 | 3.2 | 8.0 | 0.00 | 0.00 | 0.00 | 44 | 1018.6 |
| 20260830164904 | 32 | 249 | 1.6 | 8.0 | 0.00 | 0.00 | 0.00 | 44 | 1018.6 |
| 20260830164404 | 32 | 228 | 3.2 | 9.7 | 0.00 | 0.00 | 0.00 | 45 | 1018.6 |
| 20260830163905 | 32 | 155 | 0.0 | 3.2 | 0.00 | 0.00 | 0.00 | 46 | 1018.6 |
| 20260830163405 | 32 | 191 | 1.6 | 4.8 | 0.00 | 0.00 | 0.00 | 46 | 1018.7 |
| 20260830162904 | 32 | 220 | 3.2 | 9.7 | 0.00 | 0.00 | 0.00 | 46 | 1018.8 |
| 20260830162404 | 32 | 216 | 1.6 | 8.0 | 0.00 | 0.00 | 0.00 | 48 | 1018.7 |
| 20260830161905 | 32 | 184 | 1.6 | 8.0 | 0.00 | 0.00 | 0.00 | 48 | 1018.8 |
| 20260830160904 | 32 | 218 | 0.0 | 3.2 | 0.00 | 0.00 | 0.00 | 50 | 1018.8 |
| 20260830160404 | 32 | 164 | 1.6 | 3.2 | 0.00 | 0.00 | 0.00 | 51 | 1018.8 |
| 20260830155904 | 31 | 173 | 0.0 | 3.2 | 0.00 | 0.00 | 0.00 | 52 | 1018.8 |
| 20260830155403 | 31 | 193 | 1.6 | 4.8 | 0.00 | 0.00 | 0.00 | 52 | 1018.8 |
| 20260830154904 | 31 | 208 | 0.0 | 0.0 | 0.00 | 0.00 | 0.00 | 53 | 1018.8 |
| 20260830153904 | 31 | 177 | 0.0 | 0.0 | 0.00 | 0.00 | 0.00 | 54 | 1018.8 |
| 20260830153404 | 30 | 175 | 0.0 | 1.6 | 0.00 | 0.00 | 0.00 | 56 | 1018.8 |
| 20260830152904 | 30 | 193 | 1.6 | 4.8 | 0.00 | 0.00 | 0.00 | 55 | 1018.8 |
| 20260830152404 | 30 | 167 | 1.6 | 4.8 | 0.00 | 0.00 | 0.00 | 57 | 1018.7 |
| 20260830151904 | 29 | 147 | 0.0 | 3.2 | 0.00 | 0.00 | 0.00 | 58 | 1018.6 |
| 20260830151404 | 29 | 177 | 1.6 | 8.0 | 0.00 | 0.00 | 0.00 | 59 | 1018.6 |
| 20260830150404 | 28 | 190 | 0.0 | 3.2 | 0.00 | 0.00 | 0.00 | 62 | 1018.4 |
| 20260830145905 | 28 | 159 | 0.0 | 3.2 | 0.00 | 0.00 | 0.00 | 63 | 1018.4 |
| 20260830145405 | 27 | 219 | 0.0 | 3.2 | 0.00 | 0.00 | 0.00 | 64 | 1018.5 |
| 20260830144904 | 27 | 221 | 0.0 | 3.2 | 0.00 | 0.00 | 0.00 | 64 | 1018.6 |
| 20260830144404 | 27 | 205 | 1.6 | 4.8 | 0.00 | 0.00 | 0.00 | 65 | 1018.6 |
| 20260830143404 | 26 | 229 | 1.6 | 3.2 | 0.00 | 0.00 | 0.00 | 67 | 1018.4 |
| 20260830142904 | 26 | 156 | 0.0 | 4.8 | 0.00 | 0.00 | 0.00 | 68 | 1018.4 |
| 20260830142404 | 25 | 248 | 1.6 | 11.3 | 0.00 | 0.00 | 0.00 | 68 | 1018.5 |
| 20260830141904 | 25 | 186 | 0.0 | 0.0 | 0.00 | 0.00 | 0.00 | 69 | 1018.5 |
| 20260830141404 | 25 | 148 | 0.0 | 0.0 | 0.00 | 0.00 | 0.00 | 71 | 1018.5 |
| 20260830140903 | 24 | 159 | 0.0 | 0.0 | 0.00 | 0.00 | 0.00 | 71 | 1018.5 |
| 20260830135904 | 23 | 172 | 0.0 | 0.0 | 0.00 | 0.00 | 0.00 | 73 | 1018.5 |
| 20260830135403 | 23 | 175 | 0.0 | 0.0 | 0.00 | 0.00 | 0.00 | 73 | 1018.5 |
| 20260830134904 | 23 | 152 | 0.0 | 0.0 | 0.00 | 0.00 | 0.00 | 75 | 1018.5 |
| 20260830134404 | 22 | 169 | 0.0 | 0.0 | 0.00 | 0.00 | 0.00 | 76 | 1018.4 |
| 20260830132903 | 21 | 175 | 0.0 | 0.0 | 0.00 | 0.00 | 0.00 | 82 | 1018.6 |
| 20260830131904 | 20 | 153 | 0.0 | 0.0 | 0.00 | 0.00 | 0.00 | 82 | 1018.6 |
| 20260830131404 | 20 | 154 | 0.0 | 0.0 | 0.00 | 0.00 | 0.00 | 82 | 1018.6 |
| 20260830130903 | 20 | 98 | 0.0 | 0.0 | 0.00 | 0.00 | 0.00 | 82 | 1018.7 |
| 20260830125904 | 19 | 98 | 0.0 | 0.0 | 0.00 | 0.00 | 0.00 | 82 | 1018.7 |
| 20260830125404 | 19 | 98 | 0.0 | 0.0 | 0.00 | 0.00 | 0.00 | 82 | 1018.8 |
| 20260830124904 | 19 | 98 | 0.0 | 0.0 | 0.00 | 0.00 | 0.00 | 82 | 1018.7 |
| 20260830124403 | 19 | 98 | 0.0 | 0.0 | 0.00 | 0.00 | 0.00 | 82 | 1018.6 |
| 20260830123904 | 18 | 98 | 0.0 | 0.0 | 0.00 | 0.00 | 0.00 | 82 | 1018.6 |
| 20260830122904 | 18 | 98 | 0.0 | 0.0 | 0.00 | 0.00 | 0.00 | 82 | 1018.5 |
| 20260830122403 | 18 | 98 | 0.0 | 0.0 | 0.00 | 0.00 | 0.00 | 82 | 1018.5 |
| 20260830121904 | 18 | 98 | 0.0 | 0.0 | 0.00 | 0.00 | 0.00 | 82 | 1018.4 |
| 20260830121404 | 18 | 98 | 0.0 | 0.0 | 0.00 | 0.00 | 0.00 | 82 | 1018.4 |
| 20260830120403 | 17 | 98 | 0.0 | 0.0 | 0.00 | 0.00 | 0.00 | 82 | 1018.3 |
| 20260830115904 | 17 | 98 | 0.0 | 0.0 | 0.00 | 0.00 | 0.00 | 82 | 1018.3 |
| 20260830115404 | 17 | 98 | 0.0 | 0.0 | 0.00 | 0.00 | 0.00 | 82 | 1018.2 |
| 20260830114904 | 17 | 98 | 0.0 | 0.0 | 0.00 | 0.00 | 0.00 | 82 | 1018.1 |
| 20260830114404 | 17 | 98 | 0.0 | 0.0 | 0.00 | 0.00 | 0.00 | 82 | 1018.1 |
| 20260830113903 | 17 | 98 | 0.0 | 0.0 | 0.00 | 0.00 | 0.00 | 82 | 1018.2 |
| 20260830113404 | 17 | 98 | 0.0 | 0.0 | 0.00 | 0.00 | 0.00 | 82 | 1018.2 |
| 20260830112904 | 17 | 98 | 0.0 | 0.0 | 0.00 | 0.00 | 0.00 | 82 | 1018.2 |
| 20260830112404 | 17 | 98 | 0.0 | 0.0 | 0.00 | 0.00 | 0.00 | 82 | 1018.1 |
| 20260830111903 | 17 | 98 | 0.0 | 0.0 | 0.00 | 0.00 | 0.00 | 82 | 1018.0 |
| 20260830111404 | 17 | 98 | 0.0 | 0.0 | 0.00 | 0.00 | 0.00 | 82 | 1018.0 |
| 20260830110904 | 17 | 98 | 0.0 | 0.0 | 0.00 | 0.00 | 0.00 | 82 | 1017.8 |
| 20260830105904 | 17 | 98 | 0.0 | 0.0 | 0.00 | 0.00 | 0.00 | 82 | 1017.7 |
| 20260830105403 | 18 | 98 | 0.0 | 0.0 | 0.00 | 0.00 | 0.00 | 82 | 1017.7 |
| 20260830104903 | 18 | 98 | 0.0 | 0.0 | 0.00 | 0.00 | 0.00 | 82 | 1017.6 |
| 20260830104404 | 18 | 98 | 0.0 | 0.0 | 0.00 | 0.00 | 0.00 | 82 | 1017.6 |
| 20260830103903 | 18 | 98 | 0.0 | 0.0 | 0.00 | 0.00 | 0.00 | 82 | 1017.6 |
| 20260830103404 | 18 | 98 | 0.0 | 0.0 | 0.00 | 0.00 | 0.00 | 82 | 1017.6 |
| 20260830102904 | 18 | 98 | 0.0 | 0.0 | 0.00 | 0.00 | 0.00 | 82 | 1017.7 |
| 20260830102404 | 18 | 98 | 0.0 | 0.0 | 0.00 | 0.00 | 0.00 | 82 | 1017.6 |
| 20260830101404 | 18 | 98 | 0.0 | 0.0 | 0.00 | 0.00 | 0.00 | 82 | 1017.7 |
| 20260830100903 | 18 | 98 | 0.0 | 0.0 | 0.00 | 0.00 | 0.00 | 82 | 1017.6 |
| 20260830100404 | 18 | 98 | 0.0 | 0.0 | 0.00 | 0.00 | 0.00 | 82 | 1017.7 |
| 20260830095904 | 18 | 98 | 0.0 | 0.0 | 0.00 | 0.00 | 0.00 | 82 | 1017.7 |
| 20260830094904 | 18 | 98 | 0.0 | 0.0 | 0.00 | 0.00 | 0.00 | 82 | 1017.7 |
| 20260830094404 | 18 | 98 | 0.0 | 0.0 | 0.00 | 0.00 | 0.00 | 82 | 1017.7 |
| 20260830093404 | 18 | 98 | 0.0 | 0.0 | 0.00 | 0.00 | 0.00 | 82 | 1017.7 |
| 20260830092904 | 18 | 98 | 0.0 | 0.0 | 0.00 | 0.00 | 0.00 | 82 | 1017.7 |
| 20260830092403 | 18 | 98 | 0.0 | 0.0 | 0.00 | 0.00 | 0.00 | 82 | 1017.8 |
| 20260830091904 | 18 | 98 | 0.0 | 0.0 | 0.00 | 0.00 | 0.00 | 82 | 1017.8 |
| 20260830091404 | 18 | 98 | 0.0 | 0.0 | 0.00 | 0.00 | 0.00 | 82 | 1017.8 |
| 20260830090905 | 18 | 98 | 0.0 | 0.0 | 0.00 | 0.00 | 0.00 | 82 | 1017.8 |
| 20260830090405 | 18 | 98 | 0.0 | 0.0 | 0.00 | 0.00 | 0.00 | 82 | 1017.8 |
| 20260830085906 | 18 | 98 | 0.0 | 0.0 | 0.00 | 0.00 | 0.00 | 82 | 1017.7 |
| 20260830085405 | 18 | 98 | 0.0 | 0.0 | 0.00 | 0.00 | 0.00 | 82 | 1017.9 |
| 20260830084406 | 18 | 98 | 0.0 | 0.0 | 0.00 | 0.00 | 0.00 | 82 | 1018.0 |
| 20260830083905 | 18 | 98 | 0.0 | 0.0 | 0.00 | 0.00 | 0.00 | 82 | 1017.9 |
| 20260830083405 | 18 | 98 | 0.0 | 0.0 | 0.00 | 0.00 | 0.00 | 82 | 1017.8 |
| 20260830082905 | 18 | 98 | 0.0 | 0.0 | 0.00 | 0.00 | 0.00 | 82 | 1017.8 |
| 20260830082405 | 18 | 98 | 0.0 | 0.0 | 0.00 | 0.00 | 0.00 | 82 | 1017.9 |
| 20260830081905 | 18 | 98 | 0.0 | 0.0 | 0.00 | 0.00 | 0.00 | 82 | 1017.8 |
| 20260830080905 | 18 | 98 | 0.0 | 0.0 | 0.00 | 0.00 | 0.00 | 82 | 1017.9 |
| 20260830080405 | 18 | 98 | 0.0 | 0.0 | 0.00 | 0.00 | 0.00 | 82 | 1017.9 |
| 20260830075905 | 18 | 98 | 0.0 | 0.0 | 0.00 | 0.00 | 0.00 | 82 | 1017.9 |
| 20260830075405 | 18 | 98 | 0.0 | 0.0 | 0.00 | 0.00 | 0.00 | 82 | 1017.9 |
| 20260830074906 | 18 | 98 | 0.0 | 0.0 | 0.00 | 0.00 | 0.00 | 81 | 1017.9 |
| 20260830074405 | 18 | 98 | 0.0 | 0.0 | 0.00 | 0.00 | 0.00 | 81 | 1017.9 |
| 20260830073905 | 18 | 98 | 0.0 | 0.0 | 0.00 | 0.00 | 0.00 | 81 | 1017.9 |
| 20260830073406 | 18 | 98 | 0.0 | 0.0 | 0.00 | 0.00 | 0.00 | 81 | 1018.0 |
| 20260830072905 | 18 | 98 | 0.0 | 0.0 | 0.00 | 0.00 | 0.00 | 81 | 1018.0 |
| 20260830072405 | 18 | 98 | 0.0 | 0.0 | 0.00 | 0.00 | 0.00 | 81 | 1018.0 |
| 20260830071905 | 18 | 98 | 0.0 | 0.0 | 0.00 | 0.00 | 0.00 | 81 | 1018.1 |
| 20260830071405 | 18 | 98 | 0.0 | 0.0 | 0.00 | 0.00 | 0.00 | 81 | 1018.1 |
| 20260830070905 | 18 | 98 | 0.0 | 0.0 | 0.00 | 0.00 | 0.00 | 81 | 1018.1 |
| 20260830070405 | 18 | 98 | 0.0 | 0.0 | 0.00 | 0.00 | 0.00 | 81 | 1018.1 |
| 20260830065905 | 18 | 98 | 0.0 | 0.0 | 0.00 | 0.00 | 0.00 | 81 | 1018.2 |
| 20260830065405 | 18 | 98 | 0.0 | 0.0 | 0.00 | 0.00 | 0.00 | 81 | 1018.3 |
| 20260830064905 | 18 | 98 | 0.0 | 0.0 | 0.00 | 0.00 | 0.00 | 81 | 1018.4 |
| 20260830064405 | 18 | 98 | 0.0 | 0.0 | 0.00 | 0.00 | 0.00 | 81 | 1018.4 |
| 20260830063905 | 18 | 98 | 0.0 | 0.0 | 0.00 | 0.00 | 0.00 | 81 | 1018.4 |